2022-03-21 00:03:00 r, 18.15m,0000000004Hz,0000099435c,0000000.216s, 017.4C,00002191
2022-03-21 00:12:59 r, 18.14m,0000000004Hz,0000098313c,0000000.213s, 017.4C,00002191
2022-03-21 00:23:00 r, 18.12m,0000000004Hz,0000096927c,0000000.210s, 017.4C,00002191
2022-03-21 00:33:02 r, 18.08m,0000000005Hz,0000093250c,0000000.202s, 017.4C,00002191
2022-03-21 00:42:59 r, 18.18m,0000000004Hz,0000103171c,0000000.224s, 017.4C,00002191
2022-03-21 00:52:59 r, 18.06m,0000000005Hz,0000092000c,0000000.200s, 017.0C,00002191
2022-03-21 01:03:00 r, 17.96m,0000000005Hz,0000083825c,0000000.182s, 017.0C,00002191
2022-03-21 01:12:59 r, 17.88m,0000000006Hz,0000078146c,0000000.170s, 017.0C,00002191
2022-03-21 01:23:00 r, 17.75m,0000000007Hz,0000069383c,0000000.151s, 017.0C,00002191
2022-03-21 01:33:01 r, 17.77m,0000000007Hz,0000070310c,0000000.153s, 017.0C,00002191
2022-03-21 01:42:59 r, 17.77m,0000000006Hz,0000070446c,0000000.153s, 017.0C,00002191
2022-03-21 01:53:01 r, 17.64m,0000000008Hz,0000062570c,0000000.136s, 017.0C,00002191
2022-03-21 02:03:00 r, 17.67m,0000000007Hz,0000064197c,0000000.139s, 017.0C,00002191
2022-03-21 02:12:59 r, 17.57m,0000000008Hz,0000058535c,0000000.127s, 017.4C,00002191
2022-03-21 02:23:00 r, 17.64m,0000000008Hz,0000062196c,0000000.135s, 017.4C,00002191
2022-03-21 02:33:02 r, 17.56m,0000000007Hz,0000058323c,0000000.127s, 017.0C,00002191
2022-03-21 02:42:59 r, 17.51m,0000000008Hz,0000055573c,0000000.121s, 017.0C,00002191
2022-03-21 02:52:59 r, 17.39m,0000000010Hz,0000049900c,0000000.108s, 017.0C,00002191
2022-03-21 03:03:00 r, 17.33m,0000000010Hz,0000046816c,0000000.102s, 017.0C,00002191
2022-03-21 03:12:59 r, 17.36m,0000000010Hz,0000047891c,0000000.104s, 017.0C,00002191
2022-03-21 03:23:02 r, 17.38m,0000000010Hz,0000048965c,0000000.106s, 017.0C,00002191
2022-03-21 03:33:00 r, 17.39m,0000000009Hz,0000049725c,0000000.108s, 017.0C,00002191
2022-03-21 03:42:59 r, 17.42m,0000000009Hz,0000051085c,0000000.111s, 017.0C,00002191
2022-03-21 03:53:00 r, 17.65m,0000000008Hz,0000062850c,0000000.136s, 016.7C,00002191
2022-03-21 04:03:01 r, 17.74m,0000000007Hz,0000068300c,0000000.148s, 016.7C,00002191
2022-03-21 04:12:59 r, 17.56m,0000000008Hz,0000057607c,0000000.125s, 016.7C,00002191
2022-03-21 04:23:01 r, 17.48m,0000000008Hz,0000053909c,0000000.117s, 016.7C,00002191
2022-03-21 04:33:00 r, 17.45m,0000000009Hz,0000052688c,0000000.114s, 017.0C,00002191
2022-03-21 04:42:59 r, 17.42m,0000000009Hz,0000051077c,0000000.111s, 017.0C,00002191
2022-03-21 04:53:00 r, 17.44m,0000000009Hz,0000051730c,0000000.112s, 017.0C,00002191
2022-03-21 05:03:02 r, 17.54m,0000000008Hz,0000057060c,0000000.124s, 017.0C,00002191
2022-03-21 05:12:59 r, 17.38m,0000000009Hz,0000049101c,0000000.107s, 017.0C,00002191
2022-03-21 05:22:59 r, 17.25m,0000000011Hz,0000043540c,0000000.094s, 017.0C,00002191
2022-03-21 05:33:00 r, 17.43m,0000000009Hz,0000051282c,0000000.111s, 017.0C,00002191
2022-03-21 05:42:59 r, 17.59m,0000000008Hz,0000059317c,0000000.129s, 017.0C,00002191
2022-03-21 05:53:02 r, 17.55m,0000000008Hz,0000057346c,0000000.124s, 017.0C,00002191
2022-03-21 06:03:00 r, 17.56m,0000000007Hz,0000057965c,0000000.126s, 017.0C,00002191
2022-03-21 06:12:59 r, 17.63m,0000000008Hz,0000061533c,0000000.134s, 017.0C,00002191
2022-03-21 06:23:00 r, 17.54m,0000000008Hz,0000056890c,0000000.123s, 016.7C,00002191
2022-03-21 06:33:01 r, 17.29m,0000000010Hz,0000045158c,0000000.098s, 016.7C,00002191
2022-03-21 06:42:59 r, 16.60m,0000000019Hz,0000024022c,0000000.052s, 016.7C,00002191
2022-03-21 06:53:01 r, 15.05m,0000000080Hz,0000005712c,0000000.012s, 016.7C,00002191
2022-03-21 07:03:00 r, 13.19m,0000000449Hz,0000000000c,0000000.000s, 016.7C,00002191
2022-03-21 07:12:59 r, 11.19m,0000002816Hz,0000000000c,0000000.000s, 016.4C,00002191
2022-03-21 07:23:00 r, 09.43m,0000014214Hz,0000000000c,0000000.000s, 016.4C,00002191
2022-03-21 07:33:02 r, 08.12m,0000047825Hz,0000000000c,0000000.000s, 016.4C,00002191
2022-03-21 07:42:59 r, 07.27m,0000104624Hz,0000000000c,0000000.000s, 016.4C,00002191
2022-03-21 07:52:59 r, 06.49m,0000213985Hz,0000000000c,0000000.000s, 016.4C,00002191
2022-03-21 08:03:00 r, 05.92m,0000360639Hz,0000000000c,0000000.000s, 016.7C,00002191
2022-03-21 08:12:59 r, 00.00m,0000601260Hz,0000000000c,0000000.000s, 016.7C,00002191
2022-03-21 08:23:00 r, 00.00m,0000597665Hz,0000000000c,0000000.000s, 017.0C,00002191
2022-03-21 08:33:01 r, 00.00m,0000597584Hz,0000000000c,0000000.000s, 017.0C,00002191
2022-03-21 08:42:59 r, 00.00m,0000597564Hz,0000000000c,0000000.000s, 017.4C,00002191
2022-03-21 08:52:59 r, 00.00m,0000597654Hz,0000000000c,0000000.000s, 017.4C,00002191
2022-03-21 09:03:02 r, 00.00m,0000597619Hz,0000000000c,0000000.000s, 017.4C,00002191
2022-03-21 09:12:59 r, 00.00m,0000597575Hz,0000000000c,0000000.000s, 017.4C,00002191
2022-03-21 09:22:59 r, 00.00m,0000597610Hz,0000000000c,0000000.000s, 017.4C,00002191
2022-03-21 09:33:02 r, 00.00m,0000597495Hz,0000000000c,0000000.000s, 017.7C,00002191
2022-03-21 09:42:59 r, 00.00m,0000597518Hz,0000000000c,0000000.000s, 018.0C,00002191
2022-03-21 09:52:59 r, 00.00m,0000597526Hz,0000000000c,0000000.000s, 018.0C,00002191
2022-03-21 10:03:00 r, 00.00m,0000597479Hz,0000000000c,0000000.000s, 018.0C,00002191
2022-03-21 10:12:59 r, 00.00m,0000597497Hz,0000000000c,0000000.000s, 018.0C,00002191
2022-03-21 10:22:59 r, 00.00m,0000597469Hz,0000000000c,0000000.000s, 018.0C,00002191
2022-03-21 10:33:00 r, 00.00m,0000597436Hz,0000000000c,0000000.000s, 018.3C,00002191
2022-03-21 10:42:59 r, 00.00m,0000597377Hz,0000000000c,0000000.000s, 018.6C,00002191
2022-03-21 10:52:59 r, 00.00m,0000597424Hz,0000000000c,0000000.000s, 018.6C,00002191
2022-03-21 11:03:01 r, 00.00m,0000597546Hz,0000000000c,0000000.000s, 018.0C,00002191
2022-03-21 11:12:59 r, 00.00m,0000597628Hz,0000000000c,0000000.000s, 017.7C,00002191
2022-03-21 11:22:59 r, 00.00m,0000597559Hz,0000000000c,0000000.000s, 018.3C,00002191
2022-03-21 11:33:02 r, 00.00m,0000597460Hz,0000000000c,0000000.000s, 018.6C,00002191
2022-03-21 11:43:00 r, 00.00m,0000597505Hz,0000000000c,0000000.000s, 019.0C,00002191
2022-03-21 11:52:59 r, 00.00m,0000597377Hz,0000000000c,0000000.000s, 019.6C,00002191
2022-03-21 12:03:02 r, 00.00m,0000597356Hz,0000000000c,0000000.000s, 019.6C,00002191
2022-03-21 12:13:00 r, 00.00m,0000597407Hz,0000000000c,0000000.000s, 019.6C,00002191
2022-03-21 12:22:59 r, 00.00m,0000597354Hz,0000000000c,0000000.000s, 019.6C,00002191
2022-03-21 12:33:00 r, 00.00m,0000597348Hz,0000000000c,0000000.000s, 020.3C,00002191
2022-03-21 12:43:01 r, 00.00m,0000597344Hz,0000000000c,0000000.000s, 020.6C,00002191
2022-03-21 12:52:59 r, 00.00m,0000597148Hz,0000000000c,0000000.000s, 021.2C,00002191
2022-03-21 13:03:01 r, 00.00m,0000597030Hz,0000000000c,0000000.000s, 022.5C,00002191
2022-03-21 13:13:00 r, 00.00m,0000596847Hz,0000000000c,0000000.000s, 024.1C,00002191
2022-03-21 13:22:59 r, 00.00m,0000596607Hz,0000000000c,0000000.000s, 025.7C,00002191
2022-03-21 13:33:00 r, 00.00m,0000596484Hz,0000000000c,0000000.000s, 027.3C,00002191
2022-03-21 13:43:02 r, 00.00m,0000596312Hz,0000000000c,0000000.000s, 028.0C,00002191
2022-03-21 13:52:59 r, 00.00m,0000596203Hz,0000000000c,0000000.000s, 029.0C,00002191
2022-03-21 14:03:02 r, 00.00m,0000596206Hz,0000000000c,0000000.000s, 028.6C,00002191
2022-03-21 14:13:00 r, 00.00m,0000596079Hz,0000000000c,0000000.000s, 029.6C,00002191
2022-03-21 14:22:59 r, 00.00m,0000596035Hz,0000000000c,0000000.000s, 029.6C,00002191
2022-03-21 14:33:00 r, 00.00m,0000596087Hz,0000000000c,0000000.000s, 029.9C,00002191
2022-03-21 14:43:01 r, 00.00m,0000596200Hz,0000000000c,0000000.000s, 029.0C,00002191
2022-03-21 14:52:59 r, 00.00m,0000596420Hz,0000000000c,0000000.000s, 027.7C,00002191
2022-03-21 15:03:01 r, 00.00m,0000596473Hz,0000000000c,0000000.000s, 026.7C,00002191
2022-03-21 15:13:00 r, 00.00m,0000596634Hz,0000000000c,0000000.000s, 025.7C,00002191
2022-03-21 15:22:59 r, 00.00m,0000596781Hz,0000000000c,0000000.000s, 024.4C,00002191
2022-03-21 15:33:00 r, 00.00m,0000596801Hz,0000000000c,0000000.000s, 024.4C,00002191
2022-03-21 15:43:02 r, 00.00m,0000596820Hz,0000000000c,0000000.000s, 023.8C,00002191
2022-03-21 15:52:59 r, 00.00m,0000597004Hz,0000000000c,0000000.000s, 022.8C,00002191
2022-03-21 16:03:02 r, 00.00m,0000597036Hz,0000000000c,0000000.000s, 022.2C,00002191
2022-03-21 16:13:00 r, 00.00m,0000597131Hz,0000000000c,0000000.000s, 021.9C,00002191
2022-03-21 16:22:59 r, 00.00m,0000597242Hz,0000000000c,0000000.000s, 021.2C,00002191
2022-03-21 16:33:02 r, 00.00m,0000597278Hz,0000000000c,0000000.000s, 020.9C,00002191
2022-03-21 16:43:00 r, 00.00m,0000597269Hz,0000000000c,0000000.000s, 021.2C,00002191
2022-03-21 16:52:59 r, 00.00m,0000597215Hz,0000000000c,0000000.000s, 021.2C,00002191
2022-03-21 17:03:00 r, 00.00m,0000597245Hz,0000000000c,0000000.000s, 021.5C,00002191
2022-03-21 17:13:01 r, 00.00m,0000597155Hz,0000000000c,0000000.000s, 021.9C,00002191
2022-03-21 17:22:59 r, 00.00m,0000597138Hz,0000000000c,0000000.000s, 022.2C,00002191
2022-03-21 17:32:59 r, 00.00m,0000597138Hz,0000000000c,0000000.000s, 021.9C,00002191
2022-03-21 17:43:02 r, 00.00m,0000597287Hz,0000000000c,0000000.000s, 021.9C,00002191
2022-03-21 17:52:59 r, 00.00m,0000597298Hz,0000000000c,0000000.000s, 021.2C,00002191
2022-03-21 18:02:59 r, 00.00m,0000597338Hz,0000000000c,0000000.000s, 020.6C,00002191
2022-03-21 18:13:02 r, 00.00m,0000597480Hz,0000000000c,0000000.000s, 019.6C,00002191
2022-03-21 18:22:59 r, 00.00m,0000597470Hz,0000000000c,0000000.000s, 019.0C,00002191
2022-03-21 18:32:59 r, 00.00m,0000597557Hz,0000000000c,0000000.000s, 019.0C,00002191
2022-03-21 18:43:00 r, 00.00m,0000492612Hz,0000000000c,0000000.000s, 018.6C,00002191
2022-03-21 18:52:59 r, 05.95m,0000353319Hz,0000000000c,0000000.000s, 018.6C,00002191
2022-03-21 19:03:00 r, 06.49m,0000214214Hz,0000000000c,0000000.000s, 018.0C,00002191
2022-03-21 19:13:01 r, 06.63m,0000187745Hz,0000000000c,0000000.000s, 016.7C,00002191
2022-03-21 19:22:59 r, 07.27m,0000104910Hz,0000000000c,0000000.000s, 016.1C,00002191
2022-03-21 19:32:59 r, 07.73m,0000068814Hz,0000000000c,0000000.000s, 015.7C,00002191
2022-03-21 19:43:02 r, 08.68m,0000028620Hz,0000000000c,0000000.000s, 015.4C,00002191
2022-03-21 19:52:59 r, 10.12m,0000007554Hz,0000000000c,0000000.000s, 015.1C,00002191
2022-03-21 20:02:59 r, 11.96m,0000001398Hz,0000000000c,0000000.000s, 014.8C,00002191
2022-03-21 20:13:02 r, 14.03m,0000000207Hz,0000000000c,0000000.000s, 014.5C,00002191
2022-03-21 20:22:59 r, 15.86m,0000000039Hz,0000012061c,0000000.026s, 014.8C,00002191
2022-03-21 20:32:59 r, 17.27m,0000000011Hz,0000044347c,0000000.096s, 014.5C,00002191
2022-03-21 20:43:00 r, 17.99m,0000000006Hz,0000086509c,0000000.188s, 014.5C,00002191
2022-03-21 20:52:59 r, 18.26m,0000000005Hz,0000110374c,0000000.240s, 014.5C,00002191
2022-03-21 21:03:02 r, 18.35m,0000000003Hz,0000119802c,0000000.260s, 014.5C,00002191
2022-03-21 21:13:00 r, 18.41m,0000000003Hz,0000126855c,0000000.275s, 014.5C,00002191
2022-03-21 21:22:59 r, 18.36m,0000000004Hz,0000120330c,0000000.261s, 014.5C,00002191
2022-03-21 21:33:00 r, 18.36m,0000000004Hz,0000120766c,0000000.262s, 014.5C,00002191
2022-03-21 21:43:01 r, 18.39m,0000000004Hz,0000124562c,0000000.270s, 014.5C,00002191
2022-03-21 21:52:59 r, 18.43m,0000000004Hz,0000129597c,0000000.281s, 014.5C,00002191
2022-03-21 22:02:59 r, 18.46m,0000000004Hz,0000133370c,0000000.289s, 014.5C,00002191
2022-03-21 22:13:02 r, 18.49m,0000000004Hz,0000136566c,0000000.296s, 014.5C,00002191
2022-03-21 22:22:59 r, 18.52m,0000000003Hz,0000140835c,0000000.306s, 014.5C,00002191
2022-03-21 22:33:01 r, 18.35m,0000000004Hz,0000119923c,0000000.260s, 014.8C,00002191
2022-03-21 22:43:00 r, 18.51m,0000000003Hz,0000139128c,0000000.302s, 014.8C,00002191
2022-03-21 22:52:59 r, 18.51m,0000000003Hz,0000140024c,0000000.304s, 014.5C,00002191
2022-03-21 23:03:02 r, 18.59m,0000000003Hz,0000149611c,0000000.325s, 014.1C,00002191
2022-03-21 23:13:00 r, 18.48m,0000000003Hz,0000136129c,0000000.295s, 013.8C,00002191
2022-03-21 23:22:59 r, 18.47m,0000000004Hz,0000134407c,0000000.292s, 013.5C,00002191
2022-03-21 23:33:02 r, 18.47m,0000000004Hz,0000134402c,0000000.292s, 013.5C,00002191
2022-03-21 23:43:00 r, 18.46m,0000000003Hz,0000133281c,0000000.289s, 013.5C,00002191
2022-03-21 23:52:59 r, 18.35m,0000000004Hz,0000120009c,0000000.260s, 013.5C,00002191
